Retour au catalogue

ONEWEB-0343

ActifCommunicationsPO
NORAD 49209·PAYLOAD·🇬🇧 United Kingdom

Lancé Sep 14, 2021 depuis Baikonur Cosmodrome

Loading…

Prochains Passages (prochaines 24 heures)

TLE

FraisSource: CelesTrak SupGP

Époque: Sep 14, 2026, 15:08 UTC

1 49209C 21083Z   26257.63072176  .00001987  00000+0  50448-2 0  2576
2 49209  87.9168 317.6858 0001778  87.2913  24.9326 13.18688389    18

Suivez ONEWEB-0343 en temps réel avec AllMySat

Download on the App Store